contact:dominique.lefevre@mio.osupytheas.fr, maurice.libes@osupytheas.fr, didier.mallarino@osupytheas.fr
Project:EMSO http://www.emso-fr.org/EMSO-France
Depth: 2436.0 m
Title:EMSO Ligure Ouest : Data MII capteur AQUADOPP
Date,Latitude,Longitude,X_East,Y_North,Z_Up,Amplitude_X,Amplitude_Y,Amplitude_Z,Batterie,SoundSpeed,Heading,Pitch,Roll,Pressure,TIS,Speed,Direction
, degrees North, degrees East, m.s-1, m.s-1,m.s-1, 1, 1, 1, Volt, m.s-1, degree, degree, degree, dbar, degree_C, m.s-1, degree
2021-05-23T00:04:03,42.805,6.029,-0.014,0.0,0.017,101.0,100.0,100.0,13.3,1505.2,328.2,-0.8,1.8,2470.403,13.28,0.014,270.0
2021-05-23T00:07:03,42.805,6.029,-0.038,0.0,-0.02,100.0,100.0,101.0,13.3,1505.2,327.2,-0.8,1.8,2470.386,13.28,0.038,270.0
2021-05-23T00:10:03,42.805,6.029,-0.037,-0.001,-0.021,102.0,104.0,101.0,13.4,1505.2,326.4,-0.8,1.8,2470.412,13.28,0.037,268.5
2021-05-23T00:13:03,42.805,6.029,0.005,-0.009,0.023,99.0,102.0,101.0,13.4,1505.2,325.5,-0.8,1.8,2470.437,13.29,0.01,150.9
2021-05-23T00:16:03,42.805,6.029,-0.002,0.005,0.021,101.0,100.0,101.0,13.4,1505.2,329.1,-0.7,1.8,2470.396,13.29,0.005,338.2
2021-05-23T00:19:03,42.805,6.029,-0.037,0.009,0.001,100.0,101.0,101.0,13.3,1505.2,326.3,-0.7,1.8,2470.388,13.29,0.038,283.7
2021-05-23T00:22:03,42.805,6.029,-0.045,0.0,-0.032,101.0,100.0,101.0,13.4,1505.2,326.3,-0.7,1.8,2470.433,13.29,0.045,270.0
2021-05-23T00:25:03,42.805,6.029,-0.017,-0.009,-0.003,101.0,100.0,101.0,13.3,1505.2,329.6,-0.7,1.8,2470.397,13.29,0.019,242.1
2021-05-23T00:28:03,42.805,6.029,-0.029,-0.011,0.016,100.0,100.0,101.0,13.3,1505.2,324.6,-0.8,1.9,2470.4,13.29,0.031,249.2
2021-05-23T00:31:03,42.805,6.029,-0.007,0.003,0.02,102.0,101.0,100.0,13.4,1505.2,328.2,-0.7,1.8,2470.387,13.29,0.007,293.2
2021-05-23T00:34:03,42.805,6.029,-0.021,-0.008,0.012,103.0,102.0,99.0,13.4,1505.2,327.8,-0.8,1.8,2470.416,13.29,0.022,249.1
2021-05-23T00:37:03,42.805,6.029,-0.001,0.0,0.008,101.0,101.0,101.0,13.4,1505.2,327.7,-0.8,1.9,2470.331,13.29,0.001,270.0
2021-05-23T00:40:03,42.805,6.029,-0.024,-0.015,-0.005,102.0,100.0,100.0,13.4,1505.2,329.8,-0.7,1.8,2470.411,13.29,0.028,238.0
2021-05-23T00:43:03,42.805,6.029,-0.01,0.013,0.031,102.0,103.0,100.0,13.4,1505.2,325.2,-0.8,1.8,2470.423,13.29,0.016,322.4
2021-05-23T00:46:03,42.805,6.029,-0.033,0.009,0.01,101.0,100.0,100.0,13.3,1505.2,329.1,-0.7,1.8,2470.414,13.29,0.034,285.3
2021-05-23T00:49:03,42.805,6.029,0.001,0.006,0.032,99.0,100.0,101.0,13.3,1505.2,328.3,-0.8,1.8,2470.39,13.29,0.006,9.5
2021-05-23T00:52:03,42.805,6.029,-0.037,-0.001,-0.017,100.0,101.0,100.0,13.4,1505.2,326.3,-0.8,1.8,2470.446,13.29,0.037,268.5
2021-05-23T00:55:03,42.805,6.029,-0.01,-0.027,-0.006,99.0,102.0,100.0,13.4,1505.2,328.0,-0.8,1.8,2470.42,13.29,0.028,200.3
2021-05-23T00:58:03,42.805,6.029,-0.028,-0.003,-0.01,101.0,99.0,100.0,13.3,1505.2,327.1,-0.7,1.9,2470.413,13.29,0.028,263.9
2021-05-23T01:04:03,42.805,6.029,-0.026,-0.001,0.029,100.0,100.0,99.0,13.4,1505.2,328.2,-0.7,1.8,2470.481,13.28,0.026,267.8
2021-05-23T01:07:03,42.805,6.029,-0.026,-0.001,0.0,100.0,100.0,99.0,13.4,1505.2,326.0,-0.8,1.8,2470.457,13.28,0.026,267.8
2021-05-23T01:10:03,42.805,6.029,-0.027,-0.005,0.002,99.0,101.0,100.0,13.3,1505.2,329.2,-0.7,1.8,2470.461,13.28,0.027,259.5
2021-05-23T01:13:03,42.805,6.029,-0.021,-0.021,-0.014,102.0,100.0,100.0,13.3,1505.2,325.1,-0.8,1.8,2470.457,13.28,0.029,225.0
2021-05-23T01:16:03,42.805,6.029,-0.051,-0.001,-0.022,99.0,100.0,100.0,13.3,1505.2,326.9,-0.8,1.8,2470.467,13.28,0.051,268.9
2021-05-23T01:19:03,42.805,6.029,-0.034,-0.016,0.011,99.0,101.0,103.0,13.3,1505.2,325.4,-0.8,1.8,2470.472,13.29,0.037,244.8
2021-05-23T01:22:03,42.805,6.029,-0.028,-0.018,0.009,102.0,100.0,101.0,13.4,1505.2,324.8,-0.7,1.8,2470.404,13.29,0.033,237.3
2021-05-23T01:25:03,42.805,6.029,-0.011,0.0,0.017,100.0,99.0,100.0,13.4,1505.2,329.3,-0.8,1.8,2470.464,13.29,0.011,270.0
2021-05-23T01:28:03,42.805,6.029,-0.027,-0.004,0.019,100.0,101.0,99.0,13.3,1505.2,327.3,-0.8,1.8,2470.452,13.29,0.027,261.6
2021-05-23T01:31:03,42.805,6.029,-0.019,-0.011,-0.022,100.0,100.0,102.0,13.4,1505.2,325.5,-0.7,1.8,2470.433,13.29,0.021,239.9
2021-05-23T01:34:03,42.805,6.029,-0.019,-0.012,-0.015,100.0,100.0,101.0,13.4,1505.2,328.5,-0.8,1.8,2470.455,13.29,0.022,237.7
2021-05-23T01:37:03,42.805,6.029,-0.011,-0.028,0.0,100.0,100.0,100.0,13.4,1505.2,325.1,-0.7,1.8,2470.43,13.29,0.03,201.4
2021-05-23T01:40:03,42.805,6.029,-0.01,-0.011,0.0,99.0,101.0,100.0,13.4,1505.2,324.9,-0.7,1.8,2470.447,13.29,0.014,222.3
2021-05-23T01:43:03,42.805,6.029,-0.029,-0.004,0.002,100.0,101.0,100.0,13.4,1505.2,329.4,-0.8,1.8,2470.477,13.29,0.029,262.2
2021-05-23T01:46:03,42.805,6.029,-0.008,-0.015,-0.01,100.0,99.0,101.0,13.3,1505.2,328.7,-0.8,1.9,2470.448,13.29,0.017,208.1
2021-05-23T01:49:03,42.805,6.029,-0.033,0.016,0.007,100.0,100.0,101.0,13.4,1505.2,327.3,-0.8,1.8,2470.444,13.29,0.036,295.9
2021-05-23T01:52:03,42.805,6.029,-0.037,0.001,0.018,101.0,102.0,99.0,13.3,1505.2,329.2,-0.7,1.8,2470.46,13.29,0.037,271.5
2021-05-23T01:55:03,42.805,6.029,-0.022,-0.027,0.007,100.0,99.0,100.0,13.4,1505.2,324.6,-0.7,1.8,2470.463,13.29,0.034,219.2
2021-05-23T01:58:03,42.805,6.029,-0.007,-0.011,0.002,99.0,101.0,100.0,13.4,1505.2,327.7,-0.8,1.8,2470.442,13.29,0.013,212.5
2021-05-23T02:04:03,42.805,6.029,-0.025,-0.004,-0.025,100.0,101.0,100.0,13.3,1505.2,327.9,-0.8,1.8,2470.509,13.28,0.025,260.9
2021-05-23T02:07:03,42.805,6.029,-0.021,-0.012,0.011,100.0,102.0,99.0,13.3,1505.2,326.6,-0.7,1.9,2470.499,13.28,0.024,240.3
2021-05-23T02:10:03,42.805,6.029,-0.012,-0.02,-0.001,99.0,101.0,101.0,13.4,1505.2,329.3,-0.7,1.8,2470.504,13.28,0.023,211.0
2021-05-23T02:13:03,42.805,6.029,-0.015,-0.016,0.004,100.0,100.0,100.0,13.4,1505.2,325.3,-0.8,1.8,2470.494,13.28,0.021,223.1
2021-05-23T02:16:03,42.805,6.029,-0.021,0.0,0.025,99.0,101.0,100.0,13.4,1505.2,325.0,-0.7,1.8,2470.486,13.29,0.021,270.0
2021-05-23T02:19:03,42.805,6.029,-0.008,-0.014,0.0,100.0,103.0,99.0,13.3,1505.2,326.7,-0.7,1.8,2470.452,13.29,0.016,209.7
2021-05-23T02:22:03,42.805,6.029,-0.034,-0.008,-0.02,100.0,100.0,100.0,13.4,1505.2,328.4,-0.7,1.8,2470.466,13.29,0.034,256.8
2021-05-23T02:25:03,42.805,6.029,-0.011,-0.022,0.003,101.0,100.0,100.0,13.4,1505.2,326.7,-0.8,1.8,2470.504,13.29,0.024,206.6
2021-05-23T02:28:03,42.805,6.029,-0.005,-0.019,-0.006,101.0,100.0,100.0,13.4,1505.2,328.0,-0.8,1.8,2470.482,13.29,0.019,194.7
2021-05-23T02:31:03,42.805,6.029,-0.034,-0.021,-0.005,100.0,101.0,100.0,13.4,1505.2,325.6,-0.7,1.8,2470.501,13.29,0.039,238.3
2021-05-23T02:34:03,42.805,6.029,-0.007,-0.002,0.005,101.0,102.0,99.0,13.4,1505.2,327.5,-0.8,1.8,2470.531,13.29,0.007,254.1
2021-05-23T02:37:03,42.805,6.029,-0.014,0.0,0.018,101.0,100.0,100.0,13.4,1505.2,328.5,-0.7,1.8,2470.457,13.29,0.014,270.0
2021-05-23T02:40:03,42.805,6.029,-0.013,-0.029,0.012,100.0,101.0,100.0,13.3,1505.2,329.4,-0.8,1.8,2470.503,13.29,0.031,204.1
2021-05-23T02:43:03,42.805,6.029,-0.009,-0.024,-0.012,99.0,100.0,101.0,13.4,1505.2,323.9,-0.8,1.8,2470.51,13.29,0.025,200.6
2021-05-23T02:46:03,42.805,6.029,-0.02,-0.014,-0.014,101.0,101.0,101.0,13.4,1505.2,325.2,-0.8,1.8,2470.504,13.28,0.024,235.0
2021-05-23T02:49:03,42.805,6.029,-0.022,0.005,-0.016,101.0,101.0,101.0,13.4,1505.2,326.9,-0.8,1.8,2470.521,13.28,0.022,282.8
2021-05-23T02:52:03,42.805,6.029,-0.034,-0.009,0.007,101.0,101.0,101.0,13.4,1505.2,328.6,-0.8,1.8,2470.491,13.28,0.035,255.2
2021-05-23T02:55:03,42.805,6.029,-0.025,-0.015,0.012,104.0,101.0,99.0,13.3,1505.2,328.2,-0.7,1.8,2470.52,13.28,0.029,239.0
2021-05-23T02:58:03,42.805,6.029,-0.02,0.0,-0.004,103.0,100.0,102.0,13.4,1505.2,327.4,-0.8,1.8,2470.457,13.28,0.02,270.0
2021-05-23T03:04:03,42.805,6.029,-0.009,-0.012,0.0,102.0,101.0,101.0,13.3,1505.2,329.8,-0.7,1.8,2470.512,13.28,0.015,216.9
2021-05-23T03:07:03,42.805,6.029,-0.05,-0.006,-0.023,102.0,100.0,101.0,13.3,1505.2,324.5,-0.8,1.8,2470.502,13.28,0.05,263.2
2021-05-23T03:10:03,42.805,6.029,-0.039,-0.004,-0.001,101.0,101.0,100.0,13.4,1505.2,326.8,-0.8,1.8,2470.522,13.28,0.039,264.1
2021-05-23T03:13:03,42.805,6.029,-0.039,-0.019,-0.013,100.0,102.0,101.0,13.4,1505.2,328.4,-0.8,1.8,2470.505,13.28,0.043,244.0
2021-05-23T03:16:03,42.805,6.029,-0.044,-0.035,-0.05,100.0,102.0,100.0,13.4,1505.2,328.2,-0.7,1.8,2470.559,13.28,0.056,231.5
2021-05-23T03:19:03,42.805,6.029,-0.014,0.003,0.0,100.0,102.0,101.0,13.4,1505.2,329.5,-0.8,1.8,2470.57,13.28,0.014,282.1
2021-05-23T03:22:03,42.805,6.029,-0.019,-0.023,-0.008,102.0,99.0,100.0,13.4,1505.2,328.8,-0.8,1.8,2470.514,13.28,0.029,219.6
2021-05-23T03:25:03,42.805,6.029,-0.044,-0.013,-0.016,99.0,100.0,100.0,13.3,1505.2,328.7,-0.8,1.8,2470.516,13.28,0.045,253.5
2021-05-23T03:28:03,42.805,6.029,-0.031,-0.021,-0.008,102.0,102.0,100.0,13.3,1505.2,328.3,-0.8,1.8,2470.515,13.28,0.037,235.9
2021-05-23T03:31:03,42.805,6.029,-0.033,-0.014,0.02,100.0,104.0,100.0,13.4,1505.2,329.6,-0.8,1.8,2470.551,13.28,0.035,247.0
2021-05-23T03:34:03,42.805,6.029,-0.029,0.002,0.007,100.0,102.0,101.0,13.4,1505.2,329.7,-0.8,1.8,2470.529,13.28,0.029,273.9
2021-05-23T03:37:03,42.805,6.029,-0.017,-0.028,-0.011,101.0,100.0,101.0,13.3,1505.2,328.6,-0.7,1.8,2470.557,13.28,0.032,211.3
2021-05-23T03:40:03,42.805,6.029,-0.009,-0.009,0.009,101.0,101.0,101.0,13.4,1505.2,329.6,-0.7,1.8,2470.526,13.28,0.012,225.0
2021-05-23T03:43:03,42.805,6.029,-0.012,-0.012,0.007,102.0,101.0,100.0,13.4,1505.2,326.8,-0.7,1.8,2470.509,13.28,0.016,225.0
2021-05-23T03:46:03,42.805,6.029,-0.057,0.006,-0.003,101.0,102.0,100.0,13.4,1505.2,329.1,-0.8,1.8,2470.561,13.28,0.057,276.0
2021-05-23T03:49:03,42.805,6.029,-0.034,-0.017,-0.033,101.0,101.0,101.0,13.4,1505.2,325.7,-0.8,1.8,2470.521,13.28,0.038,243.4
2021-05-23T03:52:03,42.805,6.029,-0.02,-0.012,-0.007,99.0,102.0,101.0,13.3,1505.2,328.6,-0.7,1.9,2470.545,13.28,0.023,239.0
2021-05-23T03:55:03,42.805,6.029,-0.031,-0.01,-0.021,101.0,102.0,101.0,13.3,1505.2,325.1,-0.8,1.8,2470.554,13.28,0.032,252.1
2021-05-23T03:58:03,42.805,6.029,0.003,-0.02,0.0,100.0,102.0,102.0,13.3,1505.2,325.5,-0.7,1.8,2470.548,13.28,0.02,171.5
2021-05-23T04:01:03,42.805,6.029,-0.025,-0.016,-0.008,102.0,100.0,99.0,13.4,1505.2,329.3,-0.7,1.8,2470.504,13.28,0.029,237.4
2021-05-23T04:04:03,42.805,6.029,-0.006,-0.02,0.018,102.0,101.0,100.0,13.4,1505.2,327.3,-0.7,1.8,2470.545,13.28,0.02,196.7
2021-05-23T04:07:03,42.805,6.029,-0.029,-0.001,-0.023,102.0,101.0,100.0,13.4,1505.2,326.5,-0.7,1.8,2470.499,13.28,0.029,268.0
2021-05-23T04:10:03,42.805,6.029,-0.036,-0.002,0.003,101.0,103.0,99.0,13.3,1505.2,328.9,-0.8,1.8,2470.555,13.28,0.036,266.8
2021-05-23T04:13:03,42.805,6.029,-0.036,-0.016,-0.014,102.0,100.0,101.0,13.4,1505.2,325.4,-0.7,1.8,2470.541,13.28,0.039,246.0
2021-05-23T04:16:03,42.805,6.029,-0.012,-0.018,-0.024,101.0,102.0,100.0,13.4,1505.2,327.1,-0.7,1.8,2470.565,13.28,0.021,213.7
2021-05-23T04:19:03,42.805,6.029,-0.031,-0.009,0.011,102.0,101.0,101.0,13.4,1505.2,326.4,-0.7,1.8,2470.55,13.28,0.032,253.8
2021-05-23T04:22:03,42.805,6.029,-0.027,-0.014,-0.016,101.0,102.0,100.0,13.4,1505.2,325.7,-0.7,1.9,2470.548,13.28,0.03,242.6
2021-05-23T04:25:03,42.805,6.029,-0.049,-0.012,-0.014,102.0,101.0,100.0,13.3,1505.2,328.2,-0.8,1.8,2470.527,13.28,0.05,256.2
2021-05-23T04:28:03,42.805,6.029,-0.033,-0.019,-0.025,101.0,100.0,101.0,13.4,1505.2,324.7,-0.8,1.8,2470.501,13.28,0.038,240.1
2021-05-23T04:31:03,42.805,6.029,-0.005,0.005,0.029,101.0,100.0,100.0,13.4,1505.2,328.2,-0.8,1.8,2470.543,13.28,0.007,315.0
2021-05-23T04:34:03,42.805,6.029,-0.036,-0.012,-0.022,102.0,99.0,101.0,13.4,1505.2,329.3,-0.8,1.8,2470.513,13.28,0.037,251.6
2021-05-23T04:37:03,42.805,6.029,-0.021,-0.007,0.013,100.0,102.0,100.0,13.4,1505.2,327.3,-0.7,1.8,2470.491,13.28,0.022,251.6
2021-05-23T04:40:03,42.805,6.029,-0.046,-0.003,-0.034,101.0,102.0,99.0,13.4,1505.2,325.9,-0.7,1.8,2470.533,13.28,0.046,266.3
2021-05-23T04:43:03,42.805,6.029,-0.016,-0.006,0.005,100.0,102.0,100.0,13.4,1505.2,325.1,-0.7,1.8,2470.504,13.28,0.017,249.4
2021-05-23T04:46:03,42.805,6.029,-0.035,-0.017,0.0,102.0,102.0,100.0,13.4,1505.2,325.6,-0.8,1.8,2470.553,13.28,0.038,244.1
2021-05-23T04:49:03,42.805,6.029,-0.023,-0.013,0.002,102.0,101.0,100.0,13.4,1505.2,329.7,-0.8,1.8,2470.549,13.28,0.026,240.5
2021-05-23T04:52:03,42.805,6.029,-0.023,-0.012,-0.012,100.0,101.0,100.0,13.4,1505.2,329.1,-0.8,1.8,2470.529,13.28,0.025,242.4
2021-05-23T04:55:03,42.805,6.029,-0.03,-0.009,0.013,100.0,101.0,100.0,13.4,1505.2,324.6,-0.7,1.8,2470.544,13.28,0.031,253.3
2021-05-23T04:58:03,42.805,6.029,-0.018,0.0,0.0,100.0,101.0,100.0,13.4,1505.2,327.9,-0.8,1.8,2470.555,13.28,0.018,270.0
2021-05-23T05:04:03,42.805,6.029,-0.042,-0.003,0.007,102.0,100.0,101.0,13.4,1505.2,328.0,-0.7,1.8,2470.585,13.28,0.042,265.9
2021-05-23T05:07:03,42.805,6.029,-0.028,-0.017,-0.02,101.0,102.0,101.0,13.4,1505.2,327.8,-0.8,1.8,2470.584,13.28,0.032,238.7
2021-05-23T05:10:03,42.805,6.029,-0.037,-0.012,-0.022,101.0,102.0,100.0,13.4,1505.2,325.9,-0.7,1.8,2470.542,13.28,0.038,252.0
2021-05-23T05:13:03,42.805,6.029,-0.037,-0.006,-0.014,102.0,100.0,99.0,13.4,1505.2,325.9,-0.8,1.8,2470.543,13.28,0.037,260.8
2021-05-23T05:16:03,42.805,6.029,-0.025,-0.018,-0.031,100.0,101.0,100.0,13.4,1505.2,326.6,-0.8,1.8,2470.537,13.28,0.03,234.2
2021-05-23T05:19:03,42.805,6.029,-0.021,-0.006,-0.006,102.0,101.0,100.0,13.4,1505.2,325.9,-0.8,1.8,2470.557,13.28,0.021,254.1
2021-05-23T05:22:03,42.805,6.029,-0.027,0.003,0.001,102.0,101.0,100.0,13.4,1505.2,325.7,-0.8,1.9,2470.524,13.28,0.027,276.3
2021-05-23T05:25:03,42.805,6.029,-0.039,-0.003,-0.021,103.0,102.0,103.0,13.4,1505.2,327.4,-0.8,1.8,2470.544,13.28,0.039,265.6
2021-05-23T05:28:03,42.805,6.029,-0.036,-0.006,0.006,100.0,102.0,100.0,13.3,1505.2,329.1,-0.7,1.8,2470.555,13.28,0.036,260.5
2021-05-23T05:31:03,42.805,6.029,-0.028,-0.017,-0.045,101.0,101.0,101.0,13.4,1505.2,328.9,-0.8,1.8,2470.545,13.28,0.032,238.7
2021-05-23T05:34:03,42.805,6.029,-0.003,-0.001,0.012,102.0,101.0,101.0,13.3,1505.2,328.4,-0.7,1.8,2470.523,13.28,0.003,251.6
2021-05-23T05:37:03,42.805,6.029,-0.041,0.0,0.009,100.0,100.0,101.0,13.4,1505.2,328.8,-0.7,1.8,2470.516,13.28,0.041,270.0
2021-05-23T05:40:03,42.805,6.029,-0.056,0.003,0.003,101.0,102.0,101.0,13.4,1505.2,329.5,-0.7,1.8,2470.537,13.28,0.056,273.1
2021-05-23T05:43:03,42.805,6.029,-0.025,-0.009,0.002,102.0,101.0,100.0,13.4,1505.2,329.2,-0.7,1.8,2470.531,13.28,0.026,250.2
2021-05-23T05:46:03,42.805,6.029,-0.035,-0.024,-0.001,101.0,102.0,99.0,13.3,1505.2,326.5,-0.7,1.8,2470.5,13.28,0.042,235.6
2021-05-23T05:49:03,42.805,6.029,-0.015,-0.011,-0.002,101.0,102.0,101.0,13.3,1505.2,325.5,-0.8,1.8,2470.545,13.28,0.018,233.7
2021-05-23T05:52:03,42.805,6.029,-0.038,0.0,0.016,103.0,100.0,100.0,13.3,1505.2,329.5,-0.8,1.8,2470.54,13.28,0.038,270.0
2021-05-23T05:55:03,42.805,6.029,-0.018,-0.012,-0.004,101.0,101.0,100.0,13.4,1505.2,328.9,-0.8,1.8,2470.524,13.28,0.021,236.3
2021-05-23T05:58:03,42.805,6.029,-0.051,-0.007,-0.021,101.0,101.0,101.0,13.4,1505.2,327.9,-0.7,1.8,2470.524,13.28,0.051,262.2
2021-05-23T06:04:03,42.805,6.029,-0.035,-0.011,-0.022,102.0,100.0,101.0,13.3,1505.2,327.1,-0.8,1.8,2470.556,13.28,0.036,252.6
2021-05-23T06:07:03,42.805,6.029,-0.038,0.017,0.028,101.0,101.0,101.0,13.3,1505.2,329.9,-0.7,1.8,2470.507,13.28,0.041,294.1
2021-05-23T06:10:03,42.805,6.029,-0.054,-0.006,0.001,101.0,101.0,101.0,13.4,1505.2,326.0,-0.8,1.8,2470.519,13.28,0.054,263.7
2021-05-23T06:13:03,42.805,6.029,-0.022,-0.025,0.0,102.0,100.0,100.0,13.4,1505.2,324.8,-0.8,1.8,2470.519,13.28,0.033,221.3
2021-05-23T06:16:03,42.805,6.029,-0.038,0.018,0.001,101.0,102.0,101.0,13.4,1505.2,328.2,-0.7,1.8,2470.52,13.28,0.042,295.3
2021-05-23T06:19:03,42.805,6.029,-0.057,0.003,-0.015,100.0,101.0,100.0,13.3,1505.2,327.8,-0.7,1.8,2470.515,13.28,0.057,273.0
2021-05-23T06:22:03,42.805,6.029,-0.034,0.002,0.009,101.0,102.0,100.0,13.4,1505.2,326.2,-0.7,1.8,2470.552,13.28,0.034,273.4
2021-05-23T06:25:03,42.805,6.029,-0.05,-0.018,0.01,101.0,100.0,100.0,13.3,1505.2,326.0,-0.8,1.8,2470.522,13.28,0.053,250.2
2021-05-23T06:28:03,42.805,6.029,-0.034,0.006,0.001,101.0,101.0,100.0,13.4,1505.2,328.5,-0.7,1.8,2470.499,13.28,0.034,280.0
2021-05-23T06:31:03,42.805,6.029,-0.039,-0.023,0.003,100.0,101.0,100.0,13.3,1505.2,326.5,-0.7,1.8,2470.473,13.28,0.045,239.5
2021-05-23T06:34:03,42.805,6.029,-0.031,-0.006,-0.017,101.0,99.0,100.0,13.3,1505.2,328.7,-0.8,1.8,2470.484,13.29,0.031,259.0
2021-05-23T06:37:03,42.805,6.029,-0.007,-0.035,-0.011,100.0,102.0,101.0,13.4,1505.2,326.1,-0.7,1.8,2470.501,13.28,0.035,191.3
2021-05-23T06:40:03,42.805,6.029,-0.038,-0.001,-0.006,101.0,101.0,100.0,13.4,1505.2,326.0,-0.7,1.8,2470.456,13.28,0.038,268.5
2021-05-23T06:43:03,42.805,6.029,-0.038,-0.015,-0.027,101.0,100.0,101.0,13.4,1505.2,329.9,-0.8,1.8,2470.471,13.28,0.04,248.5
2021-05-23T06:46:03,42.805,6.029,-0.027,-0.02,-0.014,100.0,101.0,101.0,13.4,1505.2,327.1,-0.8,1.8,2470.509,13.28,0.033,233.5
2021-05-23T06:49:03,42.805,6.029,-0.029,-0.01,0.007,100.0,100.0,101.0,13.4,1505.2,327.7,-0.8,1.8,2470.459,13.28,0.03,251.0
2021-05-23T06:52:03,42.805,6.029,-0.024,-0.021,0.019,100.0,102.0,100.0,13.4,1505.2,328.1,-0.7,1.8,2470.505,13.28,0.031,228.8
2021-05-23T06:55:03,42.805,6.029,-0.035,0.004,-0.01,102.0,101.0,101.0,13.4,1505.2,324.7,-0.8,1.8,2470.462,13.28,0.035,276.5
2021-05-23T06:58:03,42.805,6.029,-0.035,-0.009,-0.022,100.0,102.0,101.0,13.3,1505.2,327.0,-0.8,1.8,2470.464,13.28,0.036,255.6
2021-05-23T07:04:03,42.805,6.029,-0.025,-0.011,-0.002,102.0,101.0,100.0,13.4,1505.2,329.4,-0.8,1.9,2470.505,13.28,0.027,246.3
2021-05-23T07:07:03,42.805,6.029,-0.04,0.003,0.028,101.0,101.0,100.0,13.3,1505.2,329.6,-0.8,1.8,2470.526,13.28,0.04,274.3
2021-05-23T07:10:03,42.805,6.029,-0.046,0.001,0.002,101.0,101.0,101.0,13.4,1505.2,329.3,-0.7,1.8,2470.528,13.28,0.046,271.2
2021-05-23T07:13:03,42.805,6.029,-0.033,-0.004,-0.028,101.0,101.0,101.0,13.4,1505.2,326.4,-0.7,1.8,2470.491,13.28,0.033,263.1
2021-05-23T07:16:03,42.805,6.029,-0.033,0.0,0.009,102.0,101.0,101.0,13.4,1505.2,327.9,-0.7,1.8,2470.494,13.28,0.033,270.0
2021-05-23T07:19:03,42.805,6.029,-0.032,-0.005,-0.005,100.0,101.0,102.0,13.4,1505.2,329.4,-0.8,1.8,2470.475,13.28,0.032,261.1
2021-05-23T07:22:03,42.805,6.029,-0.035,-0.011,-0.013,103.0,101.0,101.0,13.4,1505.2,324.3,-0.7,1.8,2470.477,13.28,0.036,252.6
2021-05-23T07:25:03,42.805,6.029,-0.047,-0.005,0.024,101.0,103.0,100.0,13.3,1505.2,327.2,-0.8,1.8,2470.523,13.28,0.047,263.9
2021-05-23T07:28:03,42.805,6.029,-0.029,-0.02,-0.037,101.0,102.0,101.0,13.3,1505.2,325.7,-0.7,1.8,2470.498,13.28,0.035,235.4
2021-05-23T07:31:03,42.805,6.029,-0.027,-0.005,-0.009,102.0,102.0,101.0,13.4,1505.2,330.1,-0.7,1.9,2470.467,13.28,0.027,259.5
2021-05-23T07:34:03,42.805,6.029,-0.014,-0.004,-0.029,101.0,102.0,101.0,13.3,1505.2,326.0,-0.7,1.8,2470.462,13.28,0.014,254.1
2021-05-23T07:37:03,42.805,6.029,-0.024,-0.002,0.014,101.0,101.0,101.0,13.4,1505.2,326.2,-0.8,1.8,2470.46,13.28,0.024,265.2
2021-05-23T07:40:03,42.805,6.029,-0.05,-0.011,-0.004,100.0,102.0,101.0,13.3,1505.2,328.8,-0.7,1.9,2470.479,13.28,0.051,257.6
2021-05-23T07:43:03,42.805,6.029,-0.037,0.001,0.023,101.0,102.0,101.0,13.3,1505.2,324.0,-0.7,1.8,2470.475,13.28,0.037,271.5
2021-05-23T07:46:03,42.805,6.029,-0.042,0.009,0.008,102.0,101.0,100.0,13.4,1505.2,328.4,-0.7,1.8,2470.425,13.29,0.042,282.1
2021-05-23T07:49:03,42.805,6.029,-0.039,-0.013,0.0,101.0,101.0,101.0,13.3,1505.2,325.9,-0.8,1.8,2470.445,13.29,0.041,251.6
2021-05-23T07:52:03,42.805,6.029,-0.053,0.0,0.0,102.0,101.0,102.0,13.4,1505.2,325.9,-0.7,1.8,2470.438,13.29,0.053,270.0
2021-05-23T07:55:03,42.805,6.029,-0.021,-0.013,0.004,101.0,101.0,100.0,13.3,1505.2,328.0,-0.7,1.8,2470.462,13.28,0.024,238.2
2021-05-23T07:58:03,42.805,6.029,-0.026,-0.016,-0.012,100.0,102.0,101.0,13.4,1505.2,324.3,-0.7,1.8,2470.423,13.28,0.03,238.4
2021-05-23T08:04:03,42.805,6.029,-0.049,0.004,0.016,100.0,101.0,101.0,13.3,1505.2,328.4,-0.7,1.9,2470.439,13.28,0.049,274.7
2021-05-23T08:07:03,42.805,6.029,-0.025,0.007,0.033,101.0,102.0,101.0,13.4,1505.2,326.5,-0.8,1.8,2470.451,13.28,0.025,285.6
2021-05-23T08:10:03,42.805,6.029,-0.01,0.004,0.005,102.0,101.0,101.0,13.4,1505.2,325.4,-0.8,1.8,2470.471,13.28,0.01,291.8
2021-05-23T08:13:03,42.805,6.029,-0.029,-0.011,-0.002,101.0,102.0,100.0,13.3,1505.2,329.0,-0.7,1.8,2470.467,13.28,0.031,249.2
2021-05-23T08:16:03,42.805,6.029,-0.044,-0.012,0.018,102.0,102.0,100.0,13.4,1505.2,328.0,-0.7,1.8,2470.428,13.28,0.045,254.7
2021-05-23T08:19:03,42.805,6.029,-0.038,-0.008,0.001,102.0,101.0,101.0,13.3,1505.2,325.6,-0.8,1.8,2470.441,13.28,0.038,258.1
2021-05-23T08:22:03,42.805,6.029,-0.015,0.01,-0.016,102.0,102.0,101.0,13.4,1505.2,328.9,-0.7,1.8,2470.422,13.28,0.018,303.7
2021-05-23T08:25:03,42.805,6.029,-0.021,-0.007,0.001,102.0,103.0,101.0,13.4,1505.2,326.2,-0.8,1.8,2470.462,13.28,0.022,251.6
2021-05-23T08:28:03,42.805,6.029,-0.035,-0.003,0.006,101.0,101.0,102.0,13.4,1505.2,326.7,-0.8,1.8,2470.401,13.29,0.035,265.1
2021-05-23T08:31:03,42.805,6.029,-0.046,0.002,-0.012,101.0,100.0,100.0,13.3,1505.2,326.0,-0.7,1.8,2470.421,13.29,0.046,272.5
2021-05-23T08:34:03,42.805,6.029,0.004,-0.004,0.024,102.0,101.0,99.0,13.4,1505.2,326.4,-0.7,1.8,2470.411,13.28,0.005,135.0
2021-05-23T08:37:03,42.805,6.029,-0.033,0.019,-0.004,101.0,102.0,102.0,13.4,1505.2,324.5,-0.8,1.8,2470.377,13.28,0.038,299.9
2021-05-23T08:40:03,42.805,6.029,-0.031,-0.002,-0.007,101.0,101.0,101.0,13.4,1505.2,325.3,-0.7,1.8,2470.425,13.29,0.031,266.3
2021-05-23T08:43:03,42.805,6.029,-0.021,-0.038,0.002,100.0,100.0,101.0,13.3,1505.2,328.0,-0.8,1.8,2470.408,13.28,0.043,208.9
2021-05-23T08:46:03,42.805,6.029,-0.033,-0.003,-0.009,101.0,101.0,100.0,13.4,1505.2,325.6,-0.8,1.8,2470.408,13.28,0.033,264.8
2021-05-23T08:49:03,42.805,6.029,-0.03,0.011,0.025,101.0,101.0,100.0,13.4,1505.2,325.6,-0.7,1.8,2470.421,13.28,0.031,290.1
2021-05-23T08:52:03,42.805,6.029,-0.051,-0.007,-0.006,100.0,101.0,101.0,13.3,1505.2,326.0,-0.8,1.8,2470.399,13.29,0.051,262.2
2021-05-23T08:55:03,42.805,6.029,-0.022,-0.005,0.003,100.0,101.0,100.0,13.4,1505.2,328.7,-0.7,1.8,2470.386,13.28,0.022,257.2
2021-05-23T08:58:03,42.805,6.029,-0.008,0.002,0.013,101.0,101.0,101.0,13.4,1505.2,327.7,-0.7,1.8,2470.399,13.29,0.008,284.0
2021-05-23T09:04:03,42.805,6.029,-0.027,-0.012,-0.019,103.0,102.0,100.0,13.4,1505.2,328.0,-0.8,1.8,2470.422,13.28,0.029,246.0
2021-05-23T09:07:03,42.805,6.029,-0.003,-0.002,0.002,100.0,101.0,100.0,13.4,1505.2,325.2,-0.7,1.9,2470.384,13.28,0.003,236.3
2021-05-23T09:10:03,42.805,6.029,-0.004,0.008,0.0,100.0,100.0,101.0,13.4,1505.2,327.8,-0.8,1.8,2470.388,13.28,0.008,333.4
2021-05-23T09:13:03,42.805,6.029,-0.024,-0.014,-0.003,102.0,100.0,100.0,13.3,1505.2,327.5,-0.7,1.8,2470.385,13.28,0.027,239.7
2021-05-23T09:16:03,42.805,6.029,-0.04,0.018,0.043,100.0,101.0,99.0,13.4,1505.2,328.2,-0.8,1.8,2470.39,13.28,0.043,294.2
2021-05-23T09:19:03,42.805,6.029,-0.015,-0.018,-0.029,101.0,100.0,100.0,13.4,1505.2,326.7,-0.8,1.9,2470.396,13.28,0.023,219.8
2021-05-23T09:22:03,42.805,6.029,-0.026,0.002,0.027,100.0,102.0,101.0,13.4,1505.2,329.5,-0.7,1.8,2470.335,13.28,0.026,274.4
2021-05-23T09:25:03,42.805,6.029,-0.023,-0.004,0.024,100.0,102.0,100.0,13.4,1505.2,326.4,-0.7,1.8,2470.381,13.29,0.023,260.1
2021-05-23T09:28:03,42.805,6.029,-0.007,-0.004,0.006,101.0,100.0,101.0,13.4,1505.2,325.6,-0.7,1.8,2470.403,13.29,0.008,240.3
2021-05-23T09:31:03,42.805,6.029,-0.026,0.0,0.017,101.0,100.0,101.0,13.4,1505.2,328.2,-0.8,1.9,2470.341,13.29,0.026,270.0
2021-05-23T09:34:03,42.805,6.029,-0.038,-0.009,0.0,102.0,100.0,99.0,13.4,1505.2,328.0,-0.7,1.8,2470.339,13.29,0.039,256.7
2021-05-23T09:37:03,42.805,6.029,-0.024,-0.01,-0.002,102.0,101.0,100.0,13.4,1505.2,327.2,-0.8,1.8,2470.326,13.29,0.026,247.4
2021-05-23T09:40:03,42.805,6.029,-0.028,-0.006,-0.005,103.0,100.0,101.0,13.3,1505.2,326.8,-0.8,1.8,2470.294,13.29,0.028,257.9
2021-05-23T09:43:03,42.805,6.029,-0.02,-0.006,0.001,101.0,100.0,101.0,13.3,1505.2,329.5,-0.8,1.8,2470.306,13.29,0.02,253.3
2021-05-23T09:46:03,42.805,6.029,-0.03,-0.019,-0.012,102.0,101.0,100.0,13.4,1505.2,325.5,-0.7,1.8,2470.386,13.29,0.035,237.7
2021-05-23T09:49:03,42.805,6.029,-0.025,-0.025,-0.007,101.0,102.0,102.0,13.4,1505.2,326.9,-0.7,1.8,2470.323,13.29,0.035,225.0
2021-05-23T09:52:03,42.805,6.029,-0.03,0.002,0.035,102.0,100.0,101.0,13.4,1505.2,326.2,-0.7,1.8,2470.355,13.29,0.03,273.8